Weather History for KIML - January, 2015

Change the Weather History Date:

Monday, January 12, 2015

  Actual Average Record
Temperature  
Mean Temperature 19 °F 28 °F  
Max Temperature 21 °F 41 °F 65 °F (1987)
Min Temperature 17 °F 15 °F -30 °F (1912)
Degree Days  
Heating Degree Days 46 37  
Month to date heating degree days 557 444  
Cooling Degree Days 0 0  
Month to date cooling degree days 0 0  
Year to date cooling degree days 0 0  
Moisture  
Dew Point 11 °F    
Average Humidity 71    
Maximum Humidity 74    
Minimum Humidity 67    
Precipitation  
Precipitation T in 0.01 in 0.12 in (1984)
Sea Level Pressure  
Sea Level Pressure 30.57 in    
Wind  
Wind Speed 10 mph (East)    
Max Wind Speed 17 mph    
Max Gust Speed 22 mph    
Visibility 10 miles    
Events      
T = Trace of Precipitation, MM = Missing Value Source: NWS Daily Summary

Daily Weather History Graph

Daily Weather History Graph

Search for Another Location

Airport or City:

Trip Planner

Search our weather history database for the weather conditions in past years. The results will help you decide how hot, cold, wet, or windy it might be!

Date:

Astronomy

Jan. 12, 2015 Rise Set
Actual Time 7:08 AM MST 4:40 PM MST
Civil Twilight 6:38 AM MST 5:11 PM MST
Nautical Twilight 6:04 AM MST 5:44 PM MST
Astronomical Twilight 5:32 AM MST 6:17 PM MST
Moon No Moon Rise 10:53 AM MST (1/12)
Length of Visible Light 10h 32m
Length of Day
9h 31m
Waning Gibbous, 56% of the Moon is Illuminated
Jan 12
Waning Gibbous
Jan 13
Last Quarter
Jan 20
New
Jan 26
First Quarter
Feb 3
Full

Hourly Weather History & Observations

Time (MST) Temp. Windchill Dew Point Humidity Pressure Visibility Wind Dir Wind Speed Gust Speed Precip Events Conditions
12:26 AM 18.0 °F 5.4 °F 9.0 °F 68% 30.39 in 10.0 mi North 11.5 mph - N/A   Overcast
12:53 AM 18.0 °F 6.1 °F 9.0 °F 68% 30.50 in 10.0 mi North 10.4 mph - N/A   Overcast
1:53 AM 19.0 °F 7.5 °F 10.9 °F 71% 30.53 in 10.0 mi North 10.4 mph - N/A   Overcast
2:53 AM 19.0 °F 6.8 °F 10.9 °F 71% 30.56 in 10.0 mi North 11.5 mph - N/A   Overcast
3:53 AM 19.0 °F 5.6 °F 10.0 °F 68% 30.56 in 10.0 mi NNE 13.8 mph - N/A   Overcast
4:53 AM 18.0 °F 5.4 °F 9.0 °F 68% 30.59 in 10.0 mi NNE 11.5 mph - 0.00 in   Overcast
5:53 AM 17.1 °F 5.8 °F 10.0 °F 74% 30.63 in 10.0 mi NE 9.2 mph - 0.00 in   Overcast
6:53 AM 17.6 °F 7.3 °F 10.4 °F 73% 30.52 in 10.0 mi NE 8.1 mph - N/A   Overcast
7:53 AM 17.1 °F 6.6 °F 10.0 °F 74% 30.67 in 10.0 mi ENE 8.1 mph - N/A   Overcast
8:53 AM 17.1 °F 7.6 °F 10.0 °F 74% 30.69 in 10.0 mi ENE 6.9 mph - N/A   Overcast
9:22 AM 17.1 °F 6.6 °F 10.0 °F 74% 30.55 in 10.0 mi NE 8.1 mph - N/A   Overcast
9:53 AM 17.1 °F 10.0 °F 10.0 °F 74% 30.71 in 10.0 mi ENE 4.6 mph - N/A   Overcast
10:20 AM 18.0 °F 9.8 °F 10.9 °F 74% 30.56 in 10.0 mi East 5.8 mph - N/A   Overcast
10:53 AM 18.0 °F 9.8 °F 10.0 °F 71% 30.69 in 10.0 mi ESE 5.8 mph - N/A   Overcast
11:53 AM 19.0 °F 11.1 °F 10.9 °F 71% 30.67 in 10.0 mi East 5.8 mph - N/A   Overcast
12:53 PM 19.0 °F 12.3 °F 10.9 °F 71% 30.64 in 10.0 mi SE 4.6 mph - N/A   Overcast
1:53 PM 19.9 °F 10.1 °F 10.9 °F 68% 30.62 in 10.0 mi SE 8.1 mph - N/A   Overcast
2:53 PM 19.9 °F 8.6 °F 12.0 °F 71% 30.61 in 10.0 mi SE 10.4 mph - N/A   Overcast
3:18 PM 19.9 °F 11.1 °F 12.0 °F 71% 30.47 in 10.0 mi ESE 6.9 mph - N/A   Overcast
3:53 PM 21.0 °F 9.9 °F 12.9 °F 71% 30.61 in 10.0 mi SE 10.4 mph - N/A   Overcast
4:53 PM 19.9 °F 8.6 °F 12.9 °F 74% 30.61 in 10.0 mi ESE 10.4 mph - N/A   Overcast
5:53 PM 19.9 °F 7.3 °F 12.0 °F 71% 30.61 in 10.0 mi SE 12.7 mph - N/A   Overcast
6:07 PM 19.9 °F 7.9 °F 12.0 °F 71% 30.47 in 10.0 mi SE 11.5 mph - N/A   Overcast
6:50 PM 19.4 °F 6.6 °F 10.4 °F 68% 30.47 in 10.0 mi SE 12.7 mph - N/A   Overcast
6:53 PM 19.9 °F 7.3 °F 10.9 °F 68% 30.61 in 10.0 mi SE 12.7 mph - N/A   Overcast
7:53 PM 19.9 °F 6.7 °F 10.0 °F 65% 30.60 in 10.0 mi SE 13.8 mph - N/A   Overcast
8:53 PM 19.9 °F 6.7 °F 10.0 °F 65% 30.61 in 10.0 mi SE 13.8 mph - N/A   Overcast
9:07 PM 19.9 °F 6.7 °F 10.9 °F 68% 30.46 in 10.0 mi SSE 13.8 mph - N/A   Overcast
9:53 PM 19.4 °F 7.2 °F 10.4 °F 68% 30.46 in 10.0 mi SSE 11.5 mph - N/A   Overcast
10:49 PM 19.4 °F 6.6 °F 10.4 °F 68% 30.43 in 10.0 mi SSE 12.7 mph - N/A   Overcast
10:53 PM 19.0 °F 5.0 °F 12.0 °F 74% 30.57 in 10.0 mi SSE 15.0 mph - N/A   Overcast
11:53 PM 19.9 °F 6.2 °F 14.0 °F 78% 30.55 in 10.0 mi South 15.0 mph - N/A   Overcast